TimeGMT,TemperatureF,Dew PointF,Humidity,Sea Level PressureIn,VisibilityMPH,Wind Direction,Wind SpeedMPH,Gust SpeedMPH,PrecipitationIn,Events,Conditions,WindDirDegrees,DateUTC
12:00 AM,47,42,78,29.37,12,SW,17.9,,,Rain,Light Rain Showers,230,2013-01-30 00:00:00
12:00 AM,46.4,42.8,87,29.36,6.2,SW,16.1,-,N/A,,Mostly Cloudy,230,2013-01-30 00:00:00
12:30 AM,46.4,41.0,81,29.39,6.2,SW,18.4,-,N/A,,Mostly Cloudy,230,2013-01-30 00:30:00
1:00 AM,46.4,41.0,81,29.39,6.2,SW,16.1,-,N/A,,Mostly Cloudy,230,2013-01-30 01:00:00
1:30 AM,46.4,42.8,87,29.39,6.2,WSW,18.4,-,N/A,,Mostly Cloudy,240,2013-01-30 01:30:00
2:00 AM,46.4,42.8,87,29.39,6.2,WSW,19.6,-,N/A,,Mostly Cloudy,240,2013-01-30 02:00:00
2:30 AM,46.4,41.0,81,29.39,6.2,SW,16.1,-,N/A,,Partly Cloudy,230,2013-01-30 02:30:00
3:00 AM,46.4,41.0,81,29.42,6.2,SW,16.1,-,N/A,,Partly Cloudy,220,2013-01-30 03:00:00
3:30 AM,46.4,41.0,81,29.42,6.2,WSW,16.1,28.8,N/A,Rain,Light Rain Showers,250,2013-01-30 03:30:00
4:00 AM,44.6,41.0,87,29.42,6.2,SW,13.8,-,N/A,,Scattered Clouds,230,2013-01-30 04:00:00
4:30 AM,46.4,39.2,76,29.42,6.2,SW,17.3,-,N/A,,Partly Cloudy,230,2013-01-30 04:30:00
5:00 AM,46.4,37.4,71,29.42,6.2,SW,20.7,-,N/A,,Partly Cloudy,220,2013-01-30 05:00:00
5:30 AM,46.4,37.4,71,29.44,6.2,SW,23.0,-,N/A,,Scattered Clouds,230,2013-01-30 05:30:00
6:00 AM,47,37,59,29.46,12,SW,20.1,,,,Partly Cloudy,230,2013-01-30 06:00:00
6:00 AM,46.4,37.4,71,29.44,6.2,SW,20.7,-,N/A,,Mostly Cloudy,230,2013-01-30 06:00:00
6:30 AM,46.4,37.4,71,29.44,6.2,SW,20.7,-,N/A,,Mostly Cloudy,220,2013-01-30 06:30:00
7:00 AM,48.2,39.2,71,29.44,6.2,WSW,29.9,41.4,N/A,Rain,Light Rain Showers,240,2013-01-30 07:00:00
7:30 AM,48.2,35.6,62,29.47,6.2,WSW,34.5,46.0,N/A,,Mostly Cloudy,240,2013-01-30 07:30:00
8:00 AM,48.2,35.6,62,29.47,6.2,WSW,32.2,46.0,N/A,,Mostly Cloudy,240,2013-01-30 08:00:00
8:30 AM,48.2,37.4,66,29.50,5.0,WSW,28.8,46.0,N/A,,Mostly Cloudy,240,2013-01-30 08:30:00
9:00 AM,48.2,35.6,62,29.53,5.6,WSW,34.5,-,N/A,,Mostly Cloudy,250,2013-01-30 09:00:00
9:30 AM,48.2,33.8,58,29.53,6.2,WSW,40.3,56.4,N/A,,Mostly Cloudy,250,2013-01-30 09:30:00
10:00 AM,48.2,37.4,66,29.56,5.6,WSW,33.4,46.0,N/A,,Mostly Cloudy,240,2013-01-30 10:00:00
10:30 AM,48.2,37.4,66,29.59,5.0,WSW,36.8,48.3,N/A,Rain,Light Rain Showers,240,2013-01-30 10:30:00
11:00 AM,48.2,37.4,66,29.62,5.0,WSW,35.7,47.2,N/A,Rain,Light Rain Showers,250,2013-01-30 11:00:00
11:30 AM,48.2,35.6,62,29.65,6.2,WSW,32.2,44.9,N/A,,Mostly Cloudy,250,2013-01-30 11:30:00
12:00 PM,47,38,60,29.70,5,WSW,29.1,,,Rain,Light Rain Showers,250,2013-01-30 12:00:00
12:00 PM,48.2,37.4,66,29.68,5.0,WSW,29.9,44.9,N/A,Rain,Light Rain Showers,250,2013-01-30 12:00:00
12:30 PM,48.2,37.4,66,29.71,5.0,West,31.1,59.8,N/A,,Mostly Cloudy,260,2013-01-30 12:30:00
1:00 PM,44.6,41.0,87,29.74,6.2,West,36.8,62.1,N/A,,Mostly Cloudy,270,2013-01-30 13:00:00
1:30 PM,46.4,41.0,81,29.77,5.0,West,29.9,44.9,N/A,,Mostly Cloudy,270,2013-01-30 13:30:00
2:00 PM,48.2,39.2,71,29.80,6.2,West,26.5,-,N/A,,Scattered Clouds,270,2013-01-30 14:00:00
2:30 PM,48.2,39.2,71,29.80,6.2,West,23.0,35.7,N/A,,Scattered Clouds,270,2013-01-30 14:30:00
3:00 PM,48.2,39.2,71,29.83,6.2,West,20.7,-,N/A,,Partly Cloudy,260,2013-01-30 15:00:00
3:30 PM,48.2,39.2,71,29.83,6.2,West,17.3,-,N/A,,Partly Cloudy,260,2013-01-30 15:30:00
4:00 PM,46.4,37.4,71,29.83,6.2,WSW,12.7,-,N/A,,Mostly Cloudy,250,2013-01-30 16:00:00
4:30 PM,46.4,37.4,71,29.83,6.2,WSW,10.4,-,N/A,,Mostly Cloudy,250,2013-01-30 16:30:00
5:00 PM,44.6,37.4,76,29.83,6.2,South,4.6,-,N/A,,Mostly Cloudy,180,2013-01-30 17:00:00
5:30 PM,44.6,35.6,71,29.83,6.2,SE,4.6,-,N/A,,Mostly Cloudy,140,2013-01-30 17:30:00
6:00 PM,43,36,70,29.84,12,SE,11.2,,,,Partly Cloudy,140,2013-01-30 18:00:00
6:00 PM,42.8,37.4,81,29.83,6.2,SE,10.4,-,N/A,,Mostly Cloudy,140,2013-01-30 18:00:00
6:30 PM,42.8,35.6,76,29.80,6.2,South,9.2,-,N/A,,Mostly Cloudy,170,2013-01-30 18:30:00
7:00 PM,44.6,37.4,76,29.80,6.2,SSE,11.5,-,N/A,,Mostly Cloudy,150,2013-01-30 19:00:00
7:30 PM,44.6,37.4,76,29.80,6.2,SSE,11.5,-,N/A,,Mostly Cloudy,160,2013-01-30 19:30:00
8:00 PM,44.6,37.4,76,29.80,6.2,SSE,9.2,-,N/A,,Mostly Cloudy,160,2013-01-30 20:00:00
8:30 PM,46.4,39.2,76,29.77,6.2,SSE,10.4,-,N/A,,Mostly Cloudy,150,2013-01-30 20:30:00
9:00 PM,46.4,39.2,76,29.71,6.2,South,15.0,-,N/A,,Mostly Cloudy,170,2013-01-30 21:00:00
9:30 PM,48.2,41.0,76,29.68,6.2,SSE,20.7,-,N/A,,Mostly Cloudy,160,2013-01-30 21:30:00
10:00 PM,48.2,41.0,76,29.65,6.2,SSE,19.6,-,N/A,Rain,Light Rain,150,2013-01-30 22:00:00
10:30 PM,46.4,44.6,93,29.59,5.0,South,19.6,-,N/A,Rain,Light Rain,170,2013-01-30 22:30:00
11:00 PM,46.4,42.8,87,29.56,3.7,South,24.2,35.7,N/A,Rain,Light Rain,180,2013-01-30 23:00:00
11:30 PM,46.4,41.0,81,29.53,6.2,SSW,28.8,-,N/A,Rain,Light Rain,210,2013-01-30 23:30:00